Satellite: AO-27
Catalog number: 22825
Epoch time:      06047.95806198
Element set:     334
Inclination:      098.2716 deg
RA of node:       035.7552 deg
Eccentricity:    0.0007479
Arg of perigee:   258.1789 deg
Mean anomaly:     101.8559 deg
Mean motion:   14.29162222 rev/day
Decay rate:       -4.1e-07 rev/day^2
Epoch rev:           64618
Checksum:              330

Satellite: IO-26
Catalog number: 22826
Epoch time:      06047.94831503
Element set:    0038
Inclination:      098.2665 deg
RA of node:       036.9856 deg
Eccentricity:    0.0008074
Arg of perigee:   258.1661 deg
Mean anomaly:     101.8613 deg
Mean motion:   14.29405323 rev/day
Decay rate:        6.0e-08 rev/day^2
Epoch rev:           64625
Checksum:              304

Satellite: PO-28
Catalog number: 22829
Epoch time:      06048.35003606
Element set:     304
Inclination:      098.2576 deg
RA of node:       038.5705 deg
Eccentricity:    0.0008944
Arg of perigee:   227.6467 deg
Mean anomaly:     132.3966 deg
Mean motion:   14.30093995 rev/day
Decay rate:        7.0e-07 rev/day^2
Epoch rev:           64651
Checksum:              318

Satellite: TO-31
Catalog number: 25396
Epoch time:      06047.77435143
Element set:    0462
Inclination:      098.4957 deg
RA of node:       112.2845 deg
Eccentricity:    0.0002458
Arg of perigee:   169.2032 deg
Mean anomaly:     190.9206 deg
Mean motion:   14.23697076 rev/day
Decay rate:        9.3e-07 rev/day^2
Epoch rev:           39521
Checksum:              314

Satellite: GO-32
Catalog number: 25397
Epoch time:      06047.75011968
Element set:    0953
Inclination:      098.4858 deg
RA of node:       109.2735 deg
Eccentricity:    0.0001039
Arg of perigee:   160.1814 deg
Mean anomaly:     199.9389 deg
Mean motion:   14.23098918 rev/day
Decay rate:        3.6e-07 rev/day^2
Epoch rev:           39511
Checksum:              337

Satellite: UO-36
Catalog number: 25693
Epoch time:      06048.05163266
Element set:     969
Inclination:      064.5565 deg
RA of node:       251.6927 deg
Eccentricity:    0.0004678
Arg of perigee:   329.2769 deg
Mean anomaly:     030.8062 deg
Mean motion:   14.78576511 rev/day
Decay rate:       -5.0e-07 rev/day^2
Epoch rev:           36802
Checksum:              331

Satellite: MO-46
Catalog number: 26548
Epoch time:      06048.81401860
Element set:     416
Inclination:      064.5551 deg
RA of node:       240.9450 deg
Eccentricity:    0.0052037
Arg of perigee:   264.0794 deg
Mean anomaly:     095.4351 deg
Mean motion:   14.82913755 rev/day
Decay rate:        4.2e-07 rev/day^2
Epoch rev:           29170
Checksum:              299

Satellite: NO-44
Catalog number: 26931
Epoch time:      06047.86385205
Element set:    0237
Inclination:      067.0553 deg
RA of node:       317.6028 deg
Eccentricity:    0.0006925
Arg of perigee:   270.0605 deg
Mean anomaly:     089.9684 deg
Mean motion:   14.29424676 rev/day
Decay rate:      -2.07e-06 rev/day^2
Epoch rev:           22873
Checksum:              321

Satellite: SO-50
Catalog number: 27607
Epoch time:      06048.65836412
Element set:     946
Inclination:      064.5578 deg
RA of node:       115.9080 deg
Eccentricity:    0.0057384
Arg of perigee:   184.2001 deg
Mean anomaly:     175.8628 deg
Mean motion:   14.71098763 rev/day
Decay rate:       1.14e-06 rev/day^2
Epoch rev:           16984
Checksum:              328

Satellite: AO-51
Catalog number: 28375
Epoch time:      06047.70217858
Element set:     462
Inclination:      098.1838 deg
RA of node:       105.1357 deg
Eccentricity:    0.0083178
Arg of perigee:   211.9550 deg
Mean anomaly:     147.6580 deg
Mean motion:   14.40504489 rev/day
Decay rate:        1.9e-07 rev/day^2
Epoch rev:            8581
Checksum:              320

Satellite: XO-53
Catalog number: 28894
Epoch time:      06048.74491896
Element set:     358
Inclination:      098.1790 deg
RA of node:       308.8712 deg
Eccentricity:    0.0017204
Arg of perigee:   182.6482 deg
Mean anomaly:     177.4631 deg
Mean motion:   14.59436743 rev/day
Decay rate:        1.5e-07 rev/day^2
Epoch rev:            1655
Checksum:              338

/EX
SB KEPS @ AMSAT  $ORB06048.W
Orbital Elements  06048.WEATHER

HR AMSAT ORBITAL ELEMENTS FOR WEATHER SATELLITES
FROM WA5QGD FORT WORTH,TX February 17, 2006
Send SUBSCRIBE KEPS/UNSUBSCRIBE KEPS to majordomo@amsat.org only
BID: ORB06048.W
TO ALL RADIO AMATEURS BT

Satellite: NOAA-10
Catalog number: 16969
Epoch time:      06048.40940483
Element set:      97
Inclination:      098.7647 deg
RA of node:       059.7634 deg
Eccentricity:    0.0012998
Arg of perigee:   136.7456 deg
Mean anomaly:     223.4755 deg
Mean motion:   14.27286109 rev/day
Decay rate:       1.05e-06 rev/day^2
Epoch rev:            1007
Checksum:              326

Satellite: NOAA-11
Catalog number: 19531
Epoch time:      06048.41754873
Element set:     996
Inclination:      098.8321 deg
RA of node:       138.1288 deg
Eccentricity:    0.0011149
Arg of perigee:   334.2881 deg
Mean anomaly:     025.7712 deg
Mean motion:   14.14791111 rev/day
Decay rate:        6.8e-07 rev/day^2
Epoch rev:           89760
Checksum:              318

Satellite: NOAA-12
Catalog number: 21263
Epoch time:      06048.35931170
Element set:     486
Inclination:      098.7234 deg
RA of node:       042.1884 deg
Eccentricity:    0.0013640
Arg of perigee:   076.9016 deg
Mean anomaly:     283.3690 deg
Mean motion:   14.25483557 rev/day
Decay rate:       1.15e-06 rev/day^2
Epoch rev:           76717
Checksum:              305

